Goodland, KS

11:44 AM MST on November 23, 2017 (GMT -0700)
Renner-Goodland Municipal

Weather History for KGLD - December, 2012

Change the Weather History Date:

Monday, December 3, 2012

  Actual Average Record
Temperature  
Mean Temperature 40 °F 32 °F  
Max Temperature 58 °F 44 °F 74 °F (1959)
Min Temperature 21 °F 19 °F -4 °F (1919)
Degree Days  
Heating Degree Days 25 33  
Month to date heating degree days 52 99  
Since 1 July heating degree days 1208 1418  
Cooling Degree Days 0 0  
Month to date cooling degree days 0 0  
Year to date cooling degree days 1338 941  
Moisture  
Dew Point 16 °F    
Average Humidity 39    
Maximum Humidity 59    
Minimum Humidity 19    
Precipitation  
Precipitation 0.00 in 0.02 in 0.73 in (1953)
Month to date precipitation 0.00 0.05  
Year to date precipitation 9.02 19.25  
Snow  
Snow 0.00 in 0.20 in - ()
Month to date snowfall 0.0 0.5  
Since 1 July snowfall 0.5 7.7  
Snow Depth 0.00 in    
Sea Level Pressure  
Sea Level Pressure 29.95 in    
Wind  
Wind Speed 13 mph (NW)    
Max Wind Speed 39 mph    
Max Gust Speed 45 mph    
Visibility 10 miles    
Events      
T = Trace of Precipitation, MM = Missing Value Source: NWS Daily Summary

Daily Weather History Graph

Daily Weather History Graph

Search for Another Location

Airport or City:

Trip Planner

Search our weather history database for the weather conditions in past years. The results will help you decide how hot, cold, wet, or windy it might be!

Date:

Astronomy

Dec. 03, 2012 Rise Set
Actual Time 6:50 AM MST 4:23 PM MST
Civil Twilight 6:20 AM MST 4:53 PM MST
Nautical Twilight 5:46 AM MST 5:26 PM MST
Astronomical Twilight 5:14 AM MST 5:59 PM MST
Moon 9:11 PM MST (12/3) 10:15 AM MST (12/3)
Length of Visible Light 10h 32m
Length of Day
9h 33m
Waning Gibbous, 77% of the Moon is Illuminated
Dec 3
Waning Gibbous
Dec 6
Last Quarter
Dec 13
New
Dec 19
First Quarter
Dec 28
Full

Hourly Weather History & Observations

Time (MST) Temp. Windchill Dew Point Humidity Pressure Visibility Wind Dir Wind Speed Gust Speed Precip Events Conditions
12:53 AM 45.0 °F 38.5 °F 21.0 °F 39% 29.52 in 10.0 mi SW 13.8 mph - N/A   Clear
1:53 AM 39.9 °F 33.4 °F 19.9 °F 45% 29.54 in 10.0 mi WSW 10.4 mph - N/A   Clear
2:53 AM 39.9 °F 31.1 °F 19.9 °F 45% 29.56 in 10.0 mi West 17.3 mph - N/A   Clear
3:53 AM 42.1 °F 34.9 °F 19.0 °F 40% 29.59 in 10.0 mi WNW 13.8 mph - N/A   Clear
4:53 AM 43.0 °F 36.8 °F 19.0 °F 38% 29.66 in 10.0 mi NW 11.5 mph - N/A   Clear
5:53 AM 44.1 °F 37.4 °F 19.9 °F 38% 29.73 in 10.0 mi NW 13.8 mph - N/A   Clear
6:53 AM 48.9 °F - 24.1 °F 38% 29.79 in 10.0 mi NW 16.1 mph - N/A   Clear
7:53 AM 48.9 °F - 23.0 °F 36% 29.86 in 10.0 mi NNW 15.0 mph - N/A   Clear
8:53 AM 55.0 °F - 26.1 °F 33% 29.90 in 10.0 mi North 31.1 mph 39.1 mph N/A   Clear
9:53 AM 55.0 °F - 30.0 °F 38% 29.96 in 8.0 mi North 31.1 mph 44.9 mph N/A   Clear
10:53 AM 55.0 °F - 27.0 °F 34% 29.98 in 10.0 mi North 28.8 mph 40.3 mph N/A   Clear
11:53 AM 55.9 °F - 19.0 °F 24% 29.96 in 10.0 mi North 25.3 mph 35.7 mph N/A   Clear
12:53 PM 55.9 °F - 17.1 °F 22% 29.96 in 10.0 mi North 21.9 mph 28.8 mph N/A   Clear
1:53 PM 57.0 °F - 15.1 °F 19% 29.99 in 10.0 mi North 17.3 mph - N/A   Clear
2:53 PM 55.0 °F - 14.0 °F 20% 30.03 in 10.0 mi North 15.0 mph 24.2 mph N/A   Clear
3:53 PM 51.1 °F - 10.0 °F 19% 30.06 in 10.0 mi NNE 9.2 mph - N/A   Clear
4:53 PM 41.0 °F 39.0 °F 8.1 °F 26% 30.13 in 10.0 mi North 3.5 mph - N/A   Clear
5:53 PM 33.1 °F 30.0 °F 6.1 °F 32% 30.17 in 10.0 mi NNW 3.5 mph - N/A   Clear
6:53 PM 30.0 °F 25.2 °F 6.1 °F 36% 30.18 in 10.0 mi WNW 4.6 mph - N/A   Clear
7:53 PM 28.9 °F - 7.0 °F 40% 30.19 in 10.0 mi Calm Calm - N/A   Clear
8:53 PM 24.1 °F 17.0 °F 6.1 °F 46% 30.20 in 10.0 mi WSW 5.8 mph - N/A   Clear
9:53 PM 25.0 °F 19.3 °F 7.0 °F 46% 30.21 in 10.0 mi West 4.6 mph - N/A   Clear
10:53 PM 23.0 °F - 7.0 °F 50% 30.23 in 10.0 mi Calm Calm - N/A   Clear
11:53 PM 24.1 °F 18.2 °F 7.0 °F 48% 30.23 in 10.0 mi West 4.6 mph - N/A   Clear